www.pogodaiklimat.ru

Погода и климат >> Архив погоды >> Беларусь >> Мозырь


АРХИВ ПОГОДЫ в Мозыре

Время (UTC), дата Ветер
(напр.,м/с)
 
Видим.   Явления Облачность Т
(С)
Тd
(С)
f
(%)
Тe
(С)
Тes
(С)
Комфортность P
(гПа)
Po
(гПа)
Тmin
(С)
Tmax
(С)
R
(мм)
R24
(мм)
S
(см)
06 12.09 Ю 1 15 км 3/0
[Ci]
+17.3 +6.8 50 +18 +21 тепло 1027.2 1004.7 +12.3
09 12.09 ЮЗ 1 20 км 4/0
[Ci]
+26.5 +7.0 29 +26 +36 жарко 1025.9 1004.3
12 12.09 З 1 20 км 6/0
[Ci]
+26.8 +6.9 28 +26 +34 жарко 1025.2 1003.6
15 12.09 СЗ 1 17 км 8/0
[Cc]
+25.2 +6.5 30 +25 +26 комфорт 1024.5 1002.8
18 12.09 штиль 0 10 км 6/0
[Ci]
+18.1 +7.6 50 +18 +18 тепло 1025.4 1003.1 +29.3
21 12.09 штиль 0 10 км 3/0
[Ci fib]
+16.0 +7.7 58 +16 +16 тепло 1025.3 1002.8
00 13.09 штиль 0 10 км 6/0
[Ac trans]
+14.2 +7.7 65 +14 +14 тепло 1025.6 1002.9
03 13.09 штиль 0 10 км 3/0
[Ac trans]
+12.2 +8.8 80 +12 +12 по сезону 1025.3 1002.4
06 13.09 штиль 0 20 км 8/0
[Ci fib]
+18.1 +11.3 64 +18 +21 тепло 1024.9 1002.6 +11.3
09 13.09 З 2 20 км 5/0
[Ac trans Ci fib]
+23.6 +10.2 43 +25 +31 комфорт 1024.4 1002.6
12 13.09 ЮЗ 3 20 км 8/5 1000 м
[Cu med, cong Ac trans Ci fib]
+23.1 +11.1 47 +25 +27 комфорт 1022.9 1001.0
15 13.09 З 2
{11}
20 км 8/3 600 м
[Cu med, cong Ac trans Ci]
+21.2 +9.4 47 +23 +23 комфорт 1022.0 1000.0
18 13.09 штиль 0 10 км ясно +15.6 +9.5 67 +15 +15 тепло 1022.1 999.6 +25.6
21 13.09 штиль 0 10 км 8/0
[Ac und]
+16.6 +9.6 63 +17 +17 тепло 1020.7 998.3
00 14.09 СЗ 2 10 км 8/0
[Ac und]
+16.7 +11.7 72 +17 +17 тепло 1020.7 998.3
03 14.09 СЗ 1 10 км 8/5 570 м
[Sc Ac trans Ci fib]
+12.4 +10.3 87 +12 +12 тепло 1022.9 1000.1
06 14.09 СЗ 2 15 км 8/5 300 м
[Frnb Ci fib]
+12.0 +9.8 86 +11 +12 по сезону 1024.6 1001.7 +11.6
09 14.09 СЗ 2 20 км ясно +16.7 +7.2 53 +17 +25 тепло 1025.3 1002.8
12 14.09 З 2 20 км 3/3 1000 м
[Cu med, cong]
+18.4 +3.1 36 +19 +24 тепло 1024.9 1002.6
15 14.09 СЗ 2 20 км 1/1 1000 м
[Cu med, cong]
+17.4 +4.6 43 +18 +19 тепло 1024.1 1001.7
18 14.09 штиль 0 10 км 3/0
[Ac trans]
+11.4 +5.9 69 +11 +11 по сезону 1025.5 1002.6 +20.5
21 14.09 штиль 0 10 км 8/0
[Ac trans Ci fib]
+10.6 +5.1 69 +10 +10 по сезону 1026.1 1003.1
00 15.09 штиль 0 10 км 6/0
[Ci fib]
+7.7 +5.1 84 +7 +7 по сезону 1026.2 1002.9
03 15.09 штиль 0 7000 м 8/0
[Ac trans Ci fib]
+5.8 +5.0 95 +5 +5 прохладно 1025.9 1002.5
06 15.09 штиль 0 15 км 3/0
[Ci fib]
+10.5 +6.7 77 +10 +13 по сезону 1025.5 1002.5 +5.2
09 15.09 ЮЗ 2 20 км 8/3 1000 м
[Cu hum Cs]
+16.6 +5.7 48 +17 +22 тепло 1023.2 1000.8
12 15.09 ЮЗ 2 20 км 8/5 1000 м
[Sc Cs]
+18.4 +5.7 43 +19 +22 тепло 1020.1 997.9
15 15.09 ЮЗ 2
{10}
20 км 10/0
[Cs]
+17.0 +5.4 46 +17 +18 тепло 1017.1 994.8
18 15.09 ЮЗ 1 10 км 4/0
[Ci fib]
+14.3 +4.7 52 +15 +15 тепло 1014.9 992.5 +19.4
21 15.09 ЮЗ 1 10 км 4/0
[Ci fib]
+12.7 +4.2 56 +13 +13 тепло 1012.8 990.3
00 16.09 штиль 0 10 км 8/0
[Ac und Ci fib]
+12.9 +5.4 60 +13 +13 тепло 1011.0 988.5
03 16.09 З 1 10 км 10/0
[Ac As]
+13.5 +7.1 65 +14 +14 тепло 1009.8 987.4
06 16.09 Ю 1 15 км {дождь} 9/4 600 м
[Sc Ac und]
+13.9 +9.1 73 +14 +15 тепло 1009.2 986.9 +12.5 0.0
09 16.09 СЗ 3 20 км 8/5 1000 м
[Cu med, cong Ac trans]
+19.2 +8.2 49 +20 +22 тепло 1008.7 986.8
12 16.09 З 3-13
{11}
20 км 8/5 1000 м
[Cu med, cong Ac trans Ci fib]
+20.6 +6.2 39 +22 +24 комфорт 1007.9 986.2
15 16.09 З 3-10
{13}
20 км 8/0
[Ac trans Ci]
+17.9 +5.6 44 +18 +18 тепло 1008.0 986.0
18 16.09 З 1
{13}
10 км 6/0
[Ac trans Ci fib]
+13.7 +5.7 58 +14 +14 тепло 1009.1 986.7 +22.2
21 16.09 штиль 0 10 км 8/0
[Ac trans Ci fib]
+10.2 +5.0 70 +10 +10 по сезону 1009.1 986.4
00 17.09 штиль 0 10 км 6/0
[Ac trans]
+8.2 +4.8 79 +7 +7 по сезону 1008.7 985.9
03 17.09 штиль 0 10 км ясно +6.5 +4.3 86 +6 +6 прохладно 1008.7 985.7
06 17.09 З 2 14 км 3/0
[Ci fib]
+10.2 +5.2 71 +9 +11 по сезону 1008.6 985.9 +6.3
09 17.09 З 2 20 км 5/4 1000 м
[Cu med, cong Ac trans]
+14.4 +6.0 57 +14 +18 по сезону 1007.8 985.5
12 17.09 З 2-10
{10}
20 км 5/3 1000 м
[Cu Sc Ac trans Ci]
+16.6 +2.7 39 +17 +21 по сезону 1006.8 984.7
15 17.09 ЮЗ 2
{11}
17 км 8/5 1000 м
[Sc Ac und]
+15.0 +2.7 44 +15 +15 по сезону 1005.9 983.7
18 17.09 штиль 0 10 км 8/0
[Ac und]
+12.5 +3.6 55 +12 +12 по сезону 1004.6 982.2 +18.1
21 17.09 штиль 0 10 км в посл. час ливневой дождь 10/0
[Ac As]
+10.2 +6.5 78 +10 +10 по сезону 1003.2 980.7
00 18.09 ЮЗ 1 10 км {ливн. осадки} 9/0
[Ac und]
+9.2 +4.9 74 +9 +9 по сезону 1001.3 978.7
03 18.09 ЮЗ 1 6000 м слаб. ливневой дождь 10/8 720 м
[Cb cap Ac As]
+7.1 +6.6 97 +6 +6 прохладно 1000.5 977.8
06 18.09 З 3
{11}
8000 м в посл. час ливневой дождь 9/8 300 м
[Sc Ac und]
+6.6 +5.3 91 +3 +4 холодно 1001.5 978.7 +5.5 4
09 18.09 З 3
{11}
15 км 10/10 360 м
[Sc]
+8.7 +4.8 76 +6 +6 холодно 1003.4 980.7
12 18.09 З 3
{14}
18 км {ливн. осадки} 8/8 600 м
[Sc Ac und]
+10.2 +6.1 76 +8 +9 очень
холодно
1004.7 982.1
15 18.09 З 2
{12}
8000 м дымка {ливн. осадки} 9/8 630 м
[Cb cap Ac und]
+7.8 +6.5 91 +6 +6 очень
холодно
1007.4 984.6
18 18.09 З 1 6000 м дымка {ливн. осадки} 8/0
[Ac und]
+7.7 +7.1 96 +7 +7 прохладно 1010.5 987.6 +11.5 7
21 18.09 З 1 6000 м дымка 3/3 1000 м
[Sc Ac trans]
+6.8 +6.3 97 +6 +6 прохладно 1012.6 989.6
00 19.09 З 2 7000 м дымка 9/8 210 м
[Sc Ac und]
+7.5 +6.5 93 +5 +5 прохладно 1013.5 990.5
03 19.09 З 1 7000 м дымка 9/5 270 м
[Frnb Ac und]
+7.2 +6.1 93 +6 +6 прохладно 1014.3 991.3

 

Местоположение метеостанции Мозырь (Гомельская область, Беларусь): широта 52.04 долгота 29.19 высота над уровнем моря 190 м.

В архиве по умолчанию представлена погода в Мозыре за последнюю неделю. Архивные данные за месяц целиком и за предыдущие месяцы, начиная с января 2011 года, Вы можете получить, выбрав интересующий диапазон дат из раскрывающегося списка и нажав кнопку "Ввод!".


*Определитесь, кто Вы:
робот инопланетянин человек

Внимание! Время в таблицах - всемирное. Для получения местного времени необходимо прибавить поправку, которая равна 3 ч.

Смотрите также архив погоды в соседних городах и на ближайших метеорологических станциях:

Погода в Василевичах (Гомельская область, Беларусь) (50 км)
Погода в Октябре (Гомельская область, Беларусь) (69 км)
Погода в Брагине (Гомельская область, Беларусь) (78 км)
Погода в Овруче (Житомирская область, Украина) (85 км)
Погода в Житковичах (Гомельская область, Беларусь) (92 км)
Погода в Чернобыле (Киевская область, Украина) (111 км)
Погода в Жлобине (Гомельская область, Беларусь) (111 км)
Погода в Коростени (Житомирская область, Украина) (127 км)
Погода в Гомеле (Гомельская область, Беларусь) (127 км)
Погода в Бобруйске (Могилевская область, Беларусь) (130 км)

Пояснения к столбцам:

Ветер - указаны скорость ветра в м/с - средняя за 10 мин, порывы в срок и между сроками (в фигурных скобках) и направление, откуда дует ветер: С - северный, СВ - северо-восточный, В - восточный, ЮВ - юго-восточный, Ю - южный, ЮЗ - юго-западный, З - западный, СЗ - северо-западный.
Видимость - горизонтальная дальность видимости в метрах или километрах. При видимости от 1 до 10 км при отсутствии осадков обычно наблюдается дымка, при ухудшении видимости до 1 км и менее - туман. В сухую погоду видимость может ухудшаться дымом, пылью или мглою.
Явления - указаны атмосферные явления, наблюдавшиеся в срок или в последний час перед сроком; фигурными скобками обозначены явления, наблюдавшиеся между сроками (за 1-3 часа до срока); квадратными скобками обозначены град или гололедные отложения с указанием их диаметра в мм.
Облачность - указаны через наклонную черту общая и нижняя облачность в баллах и высота нижней границы облаков в метрах; квадратными скобками обозначены формы облаков: Ci - перистые, Cs - перисто-слоистые, Cc - перисто-кучевые, Ac - высококучевые, As - высокослоистые, Sc - слоисто-кучевые, Ns - слоисто-дождевые, Cu - кучевые, Cb - кучево-дождевые. Подробнее классификацию облаков см. в Атласе облаков (PDF).
T - Температура воздуха - температура, измеренная на высоте 2 м над землей.
Td - Температура точки росы - температура, при понижении до которой содержащийся в воздухе водяной пар достигнет насыщения.
f - Относительная влажность воздуха - влажноcть воздуха, измеренная на высоте 2 м над землей.
Te - Эффективная температура - температура, которую ощущает одетый по сезону человек в тени. Характеристика душности погоды. При расчете учитывается влияние влажности воздуха и скорости ветра на теплоощущения человека.
Tes - Эффективная температура на солнце - температура, которую ощущает человек, с поправкой на солнечный нагрев. Характеристика знойности погоды. Зависит от высоты солнца над горизонтом, облачности и скорости ветра. Ночью, в пасмурную погоду, а также при ветре 12 м/с и более поправка равна нулю.
P - Атмосферное давление - приведенное к уровню моря атмосферное давление.
Po - Атмосферное давление - измеренное на уровне метеостанции атмосферное давление.
Tmin - Минимальная температура - минимум температуры воздуха на высоте 2 м над землей.
Tmax - Максимальная температура - максимум температуры воздуха на высоте 2 м над землей.
R - Количество осадков - Количество выпавших осадков за период времени, мм. При наведении курсора мыши на число - период времени, за который выпало указанное количество осадков.
R24 - Количество осадков - Количество выпавших осадков за 24 часа, мм.
S - Снежный покров - Высота снежного покрова, см. При наведении курсора мыши на число - состояние снежного покрова и степень покрытия местности в баллах.